This is the latest recevied weather packets stored in our database for station/object DM4WH-13. If no packets are shown the sender has not sent any weather packets the latest 10 day(s).
| Time | Temp. | Humidity | Pressure | Rain* | Wind** | Luminosity | Snow |
|---|---|---|---|---|---|---|---|
| 1777664126 | 11.11° C | 67% | 1027.8 hPa | 0 mm | 0 m/s | - | - |
| 1777663813 | 12.22° C | 65% | 1027.8 hPa | 0 mm | 0 m/s | - | - |
| 1777663526 | 12.22° C | 63% | 1027.8 hPa | 0 mm | 0.45 m/s, 287° | - | - |
| 1777663214 | 12.22° C | 62% | 1027.8 hPa | 0 mm | 0 m/s | - | - |
| 1777662926 | 12.78° C | 64% | 1027.7 hPa | 0 mm | 0 m/s | - | - |
| 1777662613 | 12.78° C | 58% | 1027.8 hPa | 0 mm | 0 m/s | - | - |
| 1777662326 | 12.78° C | 57% | 1027.8 hPa | 0 mm | 0 m/s | - | - |
| 1777662013 | 13.89° C | 56% | 1027.8 hPa | 0 mm | 0 m/s | - | - |
| 1777661738 | 13.89° C | 56% | 1027.7 hPa | 0 mm | 0 m/s | - | - |
| 1777661426 | 13.89° C | 55% | 1027.7 hPa | 0 mm | 0 m/s | - | - |
| 1777661113 | 13.89° C | 56% | 1027.7 hPa | 0 mm | 0 m/s | - | - |
| 1777660826 | 15° C | 53% | 1027.7 hPa | 0 mm | 0.45 m/s, 287° | - | - |
| 1777660513 | 16.11° C | 50% | 1027.7 hPa | 0 mm | 0 m/s | - | - |
| 1777660226 | 16.11° C | 49% | 1027.6 hPa | 0 mm | 0 m/s | - | - |
| 1777659913 | 16.11° C | 50% | 1027.7 hPa | 0 mm | 0 m/s | - | - |
| 1777659625 | 16.11° C | 50% | 1027.7 hPa | 0 mm | 0 m/s | - | - |
| 1777659313 | 16.11° C | 50% | 1027.6 hPa | 0 mm | 0 m/s | - | - |
| 1777659025 | 17.22° C | 49% | 1027.6 hPa | 0 mm | 0 m/s | - | - |
| 1777658713 | 17.22° C | 46% | 1027.5 hPa | 0 mm | 0 m/s | - | - |
| 1777658426 | 17.78° C | 46% | 1027.5 hPa | 0 mm | 0 m/s | - | - |
| 1777658113 | 17.78° C | 43% | 1027.5 hPa | 0 mm | 0 m/s | - | - |
| 1777657826 | 17.78° C | 43% | 1027.4 hPa | 0 mm | 0 m/s | - | - |
| 1777657513 | 18.89° C | 42% | 1027.5 hPa | 0 mm | 0 m/s | - | - |
| 1777657226 | 18.89° C | 41% | 1027.4 hPa | 0 mm | 0 m/s | - | - |
| 1777656913 | 18.89° C | 39% | 1027.4 hPa | 0 mm | 0 m/s | - | - |
* Rain latest hour (hover to see other rain measurements)
** Current wind speed in m/s (hover to see current wind gust speed)